Location: *
(43.9900°N, 3.4811°E)
Time: 01:06:09
(UTC+00:00)

BREEZE-M DEB (TANK) - Pass Details

Date: 25 August 2019
Orbit: 303 x 15408 km, 49.3° (Epoch: 19 September)

Event Time Altitude Azimuth Distance (km) Brightness Sun altitude
Rises 20:30:41 0° 295° (WNW) 2,111 7.3 -19.4°
Reaches altitude 10° 20:32:26 10° 295° (WNW) 1,181 5.7 -19.7°
Enters shadow 20:34:01 47° 289° (WNW) 434 2.7 -19.9°
